ラーゲルクヴィスト彗星

C/1996 R3 ( Lagerkvist )

English version
Home page
Updated on November 7, 2004

---------------------------------------------------------------------

・ プロフィール

発見日 1996年9月13日
発見光度 19.5等
発見者 C.-I. Lagerkvist (Uppsala Observatory)

・ 軌道要素

Perihelion 1995 Jul 20.147207 TT  2449918.647207
Epoch 1996 Oct 24.0 TT = JDT 2450380.5
q   5.2083544            (2000.0)            P               Q
                   Peri.  130.14294      0.56441447      0.82156444
                   Node   172.70774     -0.80596288      0.52737418
e   1.0            Incl.   39.31725      0.17849408     -0.21658334
From 11 observations 1996 Sep. 12-Oct. 30;   RMS error 0.870 arcseconds        

・ 光度変化

        m1 = 8.0 + 5 logΔ + 10.0 log r

---------------------------------------------------------------------

軌道要素はhttp://www.astro.uu.se/~classe/comet/com2.htmlに掲載されたものです。
光度グラフはComet for Windowsで作成したものです。

---------------------------------------------------------------------

Copyright(C) Seiichi Yoshida (comet@aerith.net). All rights reserved.